Regional Weather Roundup
Issued by NWS Sterling, VA

Home | Current Version | Previous Version | Graphics & Text | Print | Product List | Glossary On
Versions: 1 2 3 4 5 6 7 8 9 10 11 12 13 14 15 16 17 18 19 20 21 22 23 24 25 26 27 28 29 30 31 32 33 34 35 36 37 38 39 40 41 42 43 44 45 46 47 48 49 50
000
ASUS41 KLWX 300610
RWRLWX

REGIONAL WEATHER ROUNDUP
NATIONAL WEATHER SERVICE BALTIMORE MD/WASHINGTON DC
200 AM EDT TUE SEP 30 2014

Note: "FAIR" indicates few or no clouds below 12,000 feet
with no significant weather and/or obstructions to visibility.
 TC=TEMPERATURE CELSIUS

 * =Non NWS site. Station does not report precipitation (e.g. rain,
    snow, etc.), thunder, or fog.

DCZ001-MDZ009-015-VAZ040>042-051-053>054-300700-
WASHINGTON METRO

CITY           SKY/WX    TMP DP  RH WIND       PRES   REMARKS
WASHINGTON NAT CLOUDY    68  63  84 S6        29.93F
DULLES         FOG       63  63 100 S3        29.93F VSB 3/4
ANDREWS AFB    FOG       63  63 100 S5        29.93F VSB 1
QUANTICO       MOCLDY    64  62  93 NW7       29.94S
COLLEGE PARK*  CLOUDY    68  66  94 CALM      29.93S
LEESBURG*      CLOUDY    64  64 100 S3        29.94S FOG
MANASSAS*      CLOUDY    64  64 100 CALM      29.93S
GAITHERSBURG*  CLOUDY    64  63  94 S3        29.97S

$$

MDZ006>007-011-014-300700-
BALTIMORE METRO

CITY           SKY/WX    TMP DP  RH WIND       PRES   REMARKS
BWI AIRPORT    CLOUDY    65  63  93 SW5       29.93R FOG
MD SCIENCE CTR   N/A     67  64  90 MISG      29.94R
MARTIN STATE   CLOUDY    66  66 100 CALM      29.95R
ANNAPOLIS        N/A     66  63  90 MISG      29.93S
FORT MEADE*    CLOUDY    61  61 100 CALM      29.96R

$$

MDZ012-015-019>023-300700-
MARYLAND EASTERN SHORE

CITY           SKY/WX    TMP DP  RH WIND       PRES   REMARKS
OCEAN CITY     LGT RAIN N/A N/A N/A NW5       29.94S
SALISBURY      CLOUDY    66  63  88 S3        29.94F
BAY BRIDGE AP*   N/A     64  64 100 SW3       29.94R
CAMBRIDGE*     CLOUDY    63  61  94 CALM      29.94S
EASTON*        CLOUDY    65  65 100 S3        29.98S FOG

$$

MDZ017>025-300700-
SOUTHERN MARYLAND

CITY           SKY/WX    TMP DP  RH WIND       PRES   REMARKS
PATUXENT RIVER CLOUDY    63  61  93 CALM      29.94S
ST INIGOES     CLOUDY    65  61  87 SW3       29.93F
LEONARDTOWN*   CLOUDY    63  61  94 CALM      29.96S

$$

MDZ003>005-300700-
NORTH CENTRAL MARYLAND

CITY           SKY/WX    TMP DP  RH WIND       PRES   REMARKS
FREDERICK*     CLOUDY    64  64 100 CALM      29.95S
HAGERSTOWN APT PTCLDY    64  61  90 E5        29.92S
WESTMINSTER*   CLOUDY    64  63  94 S3        29.93F

$$

MDZ501>502-300700-
WESTERN MARYLAND

CITY           SKY/WX    TMP DP  RH WIND       PRES   REMARKS
OAKLAND*       PTCLDY    55 N/A N/A S6        29.99S
CUMBERLAND*    NOT AVBL

$$

VAZ025>031-300700-
SHENANDOAH VALLEY

CITY           SKY/WX    TMP DP  RH WIND       PRES   REMARKS
WINCHESTER*    PTCLDY    63  61  94 CALM      29.92S
STAUNTON*      PTCLDY    53  51  92 CALM      29.96F FOG

$$

WVZ021-048>050-054>055-300700-
EASTERN WEST VIRGINIA PANHANDLE

CITY           SKY/WX    TMP DP  RH WIND       PRES   REMARKS
MARTINSBURG    PTCLDY    64  60  87 CALM      29.92S
PETERSBURG*    CLEAR    N/A N/A N/A CALM      29.95R HAZE

$$

VAZ036>039-050-300700-
CENTRAL FOOTHILLS

CITY           SKY/WX    TMP DP  RH WIND       PRES   REMARKS
CHARLOTTESVILL FOG       64  63  96 CALM      29.93S VSB 1/4
ORANGE*        CLOUDY    63  63 100 S6        29.95S FOG

$$

VAZ055>057-300700-
NORTH AND CENTRAL PIEDMONT

CITY           SKY/WX    TMP DP  RH WIND       PRES   REMARKS
FREDERICKSBRG* FOG       65  65 100 CALM      29.92S VSB 1
STAFFORD*      FOG       62  62 100 CALM      29.97S VSB 3/4

$$

NCZ024-NYZ072-PAZ021-071-VAZ022-071-300700-
OTHER REGIONAL OBSERVATIONS

CITY           SKY/WX    TMP DP  RH WIND       PRES   REMARKS
NEW YORK CITY  CLOUDY    69  57  65 CALM      29.96R
PHILADELPHIA   CLOUDY    66  62  87 SE3       29.94R
PITTSBURGH     CLEAR     58  55  90 CALM      29.90F
ROANOKE        PTCLDY    60  59  96 CALM      29.97F
RICHMOND       MOCLDY    63  63 100 S3        29.93F FOG
RALEIGH        FOG       63  61  94 CALM      29.95F VSB 1

$$

ANZ530>537-300700-
MARINE OBSERVATIONS

STATION/POSITION TIME  TEMP    WIND        PRES
                       AIR SEA DIR/SP/G
                 (UTC) (F)     (DEG/KT/KT) (MB)
THOMAS PT LIGHT  0600   67 71  220/ 10/ 11 1014.5F
BALT KEY BRIDGE  0600   67     190/  5/  6 1013.3R
COVE POINT       0600   65     240/  6/  8 1013.8F
LEWISETTA        0600   65 71  210/  3/  4 1013.5F
SOLOMONS ISLAND  0600      72                N/A
PINEY POINT      0600          250/  3/  4   N/A

$$




USA.gov is the U.S. government's official web portal to all federal, state and local government web resources and services.